Location: Unspecified
(0.0000°N, 0.0000°E)
Time: 02:29:14
(UTC+00:00)

Vanguard 1 - Pass Details

Date: 16 December 2023
Orbit: 653 x 3826 km, 34.3° (Epoch: 22 February)

Event Time Altitude Azimuth Distance (km) Brightness Sun altitude
Rises 01:11:24 0° 289° (WNW) 7,953 - -60.3°
Reaches altitude 10° 01:17:33 10° 282° (WNW) 6,907 - -59.3°
Maximum altitude 01:37:45 41° 219° (SW) 4,024 - -55.9°
Exits shadow 01:39:20 40° 210° (SSW) 3,940 12.9 -55.6°
Drops below altitude 10° 01:51:26 10° 153° (SSE) 4,740 13.9 -53.4°
Sets 01:54:47 0° 144° (SE) 5,357 14.4 -52.8°
